CW8721 Weather Reports


Display with metric or nautical units.
time (UTC)temp
F
wind
direction
speed
MPH
gust
MPH
rain 1hr
in
rain 24hr
in
rain mn
in
humidity
%
barometer
mb
20260831142551 65 182 3.0 8.0 0.00 0.00 0.00 70 1009.5
20260831142050 64 182 3.0 8.0 0.00 0.00 0.00 73 1009.4
20260831141549 63 173 2.0 7.0 0.00 0.00 0.00 75 1009.4
20260831141049 62 118 0.0 1.0 0.00 0.00 0.00 76 1009.5
20260831140550 62 107 0.0 2.0 0.00 0.00 0.00 76 1009.6
20260831140048 62 107 0.0 2.0 0.00 0.00 0.00 76 1009.5
20260831135547 62 130 0.0 3.0 0.00 0.00 0.00 77 1009.5
20260831135046 61 130 1.0 3.0 0.00 0.00 0.00 77 1009.3
20260831134546 61 126 0.0 4.0 0.00 0.00 0.00 78 1009.3
20260831134047 61 134 1.0 6.0 0.00 0.00 0.00 78 1009.3
20260831133544 61 143 2.0 6.0 0.00 0.00 0.00 78 1009.2
20260831133044 61 146 0.0 3.0 0.00 0.00 0.00 78 1009.1
20260831132543 61 139 0.0 2.0 0.00 0.00 0.00 79 1009.2
20260831132043 60 134 0.0 2.0 0.00 0.00 0.00 79 1009.1
20260831131543 60 118 0.0 0.0 0.00 0.00 0.00 80 1009.1
20260831131047 59 115 0.0 0.0 0.00 0.00 0.00 79 1009.3
20260831130541 59 115 0.0 2.0 0.00 0.00 0.00 78 1009.1
20260831130046 59 115 0.0 3.0 0.00 0.00 0.00 78 1009.1
20260831125540 59 105 0.0 3.0 0.00 0.00 0.00 77 1009.0
20260831125040 60 123 1.0 3.0 0.00 0.00 0.00 76 1009.0
20260831124539 60 121 0.0 3.0 0.00 0.00 0.00 75 1009.0
20260831124040 61 132 1.0 3.0 0.00 0.00 0.00 75 1009.0
20260831123539 61 119 1.0 4.0 0.00 0.00 0.00 75 1008.9
20260831123047 61 100 1.0 6.0 0.00 0.00 0.00 74 1008.9
20260831122540 61 103 2.0 6.0 0.00 0.00 0.00 73 1008.9
20260831122038 61 115 1.0 4.0 0.00 0.00 0.00 72 1009.0
20260831121542 62 90 1.0 3.0 0.00 0.00 0.00 72 1009.1
20260831121039 62 98 0.0 6.0 0.00 0.00 0.00 70 1009.2
20260831120539 64 84 1.0 6.0 0.00 0.00 0.00 69 1009.1
20260831120111 64 156 1.0 6.0 0.00 0.00 0.00 70 1009.1
20260831115538 64 129 2.0 6.0 0.00 0.01 0.00 70 1009.0
20260831115039 64 171 0.0 5.0 0.00 0.01 0.00 71 1009.0
20260831114537 63 162 1.0 6.0 0.00 0.01 0.00 71 1009.1
20260831114037 63 182 0.0 3.0 0.00 0.01 0.00 71 1009.0
20260831113537 62 178 0.0 3.0 0.00 0.01 0.00 73 1009.0
20260831113037 62 132 0.0 4.0 0.00 0.01 0.00 72 1009.2
20260831112538 62 132 1.0 3.0 0.00 0.01 0.00 72 1009.1
20260831112037 62 157 0.0 3.0 0.00 0.01 0.00 73 1009.1
20260831111545 62 153 0.0 6.0 0.00 0.01 0.00 73 1009.0
20260831111035 61 167 0.0 3.0 0.00 0.01 0.00 74 1008.9
20260831110535 61 192 0.0 4.0 0.00 0.01 0.00 75 1008.8
20260831110036 60 158 1.0 4.0 0.00 0.01 0.00 76 1008.7
20260831105535 60 140 1.0 4.0 0.00 0.01 0.00 76 1008.6
20260831105035 60 95 0.0 1.0 0.00 0.01 0.00 76 1008.6
20260831104539 60 85 0.0 1.0 0.00 0.01 0.00 76 1008.7
20260831104031 60 85 0.0 2.0 0.00 0.01 0.00 75 1008.8
20260831103531 60 78 0.0 2.0 0.00 0.01 0.00 75 1008.7
20260831103029 60 28 0.0 1.0 0.00 0.01 0.00 74 1008.7
20260831102529 60 13 0.0 0.0 0.00 0.01 0.00 74 1008.7
20260831102028 61 13 0.0 0.0 0.00 0.01 0.00 73 1008.7
20260831101534 61 13 0.0 2.0 0.00 0.01 0.00 72 1008.8
20260831101028 62 13 1.0 2.0 0.00 0.01 0.00 71 1008.8
20260831100527 63 164 0.0 4.0 0.00 0.01 0.00 70 1008.6
20260831100028 64 167 0.0 4.0 0.00 0.01 0.00 70 1008.6
20260831095526 63 179 1.0 3.0 0.00 0.01 0.00 71 1008.5
20260831095026 62 178 0.0 2.0 0.00 0.01 0.00 72 1008.5
20260831094526 62 152 0.0 1.0 0.00 0.01 0.00 73 1008.5
20260831094026 61 150 0.0 3.0 0.00 0.01 0.00 73 1008.6
20260831093524 61 150 0.0 3.0 0.00 0.01 0.00 72 1008.5
20260831093025 62 157 0.0 3.0 0.00 0.01 0.00 71 1008.4
20260831092524 62 164 0.0 3.0 0.00 0.01 0.00 70 1008.5
20260831092024 63 165 0.0 2.0 0.00 0.01 0.00 69 1008.4
20260831091527 63 164 0.0 2.0 0.00 0.01 0.00 70 1008.5
20260831091024 63 163 0.0 1.0 0.00 0.01 0.00 70 1008.4
20260831090524 64 163 0.0 5.0 0.00 0.01 0.00 70 1008.4
20260831090024 63 167 0.0 5.0 0.00 0.01 0.00 72 1008.4
20260831085524 62 172 1.0 3.0 0.00 0.02 0.00 74 1008.2
20260831085024 61 144 0.0 2.0 0.00 0.02 0.00 74 1008.2
20260831084522 61 144 0.0 2.0 0.00 0.02 0.00 74 1008.2
20260831084023 61 145 0.0 2.0 0.00 0.02 0.00 74 1008.3
20260831083521 61 146 0.0 2.0 0.00 0.02 0.00 74 1008.3
20260831083024 62 132 0.0 2.0 0.00 0.02 0.00 73 1008.3
20260831082523 62 116 1.0 5.0 0.00 0.02 0.00 73 1008.3
20260831082020 62 100 2.0 5.0 0.00 0.02 0.00 72 1008.4
20260831081533 62 154 0.0 4.0 0.00 0.02 0.00 73 1008.3
20260831081019 62 147 1.0 5.0 0.00 0.02 0.00 74 1008.3
20260831080520 62 117 2.0 5.0 0.00 0.02 0.00 74 1008.2
20260831080019 62 119 2.0 4.0 0.00 0.02 0.00 74 1008.3
20260831075519 62 132 1.0 3.0 0.00 0.02 0.00 73 1008.3
20260831075020 62 96 1.0 3.0 0.00 0.02 0.00 73 1008.4
20260831074518 62 133 1.0 3.0 0.00 0.02 0.00 72 1008.5
20260831074018 62 136 1.0 3.0 0.00 0.02 0.00 72 1008.3
20260831073516 63 140 0.0 2.0 0.00 0.02 0.00 71 1008.4
20260831073129 63 140 0.0 3.0 0.00 0.02 0.00 71 1008.4
20260831072516 63 140 0.0 4.0 0.00 0.02 0.00 71 1008.4
20260831072014 63 105 0.0 7.0 0.00 0.02 0.00 71 1008.3
20260831071516 64 121 1.0 7.0 0.00 0.02 0.00 71 1008.3
20260831071014 63 145 1.0 4.0 0.00 0.02 0.00 72 1008.4
20260831070513 63 127 1.0 4.0 0.00 0.02 0.00 72 1008.3
20260831070021 63 131 0.0 1.0 0.00 0.02 0.00 72 1008.4
20260831065512 63 122 0.0 2.0 0.00 0.02 0.00 72 1008.4
20260831065011 63 121 0.0 3.0 0.00 0.02 0.00 72 1008.4
20260831064511 63 121 1.0 3.0 0.00 0.02 0.00 72 1008.3
20260831064009 63 112 0.0 3.0 0.00 0.02 0.00 72 1008.3
20260831063511 63 112 1.0 3.0 0.00 0.02 0.00 73 1008.3
20260831063008 63 117 1.0 3.0 0.00 0.02 0.00 73 1008.4
20260831062512 63 94 1.0 4.0 0.00 0.02 0.00 72 1008.4
20260831062008 64 77 1.0 4.0 0.00 0.02 0.00 71 1008.4
20260831061505 64 97 1.0 3.0 0.00 0.02 0.00 70 1008.3
20260831061007 64 78 0.0 3.0 0.00 0.02 0.00 69 1008.4
20260831060504 64 128 1.0 3.0 0.00 0.02 0.00 69 1008.4
20260831060002 64 128 0.0 2.0 0.00 0.02 0.02 68 1008.3
20260831055502 64 128 0.0 2.0 0.00 0.02 0.02 68 1008.3
20260831055002 64 128 0.0 1.0 0.00 0.02 0.02 68 1008.3
20260831054501 65 128 0.0 4.0 0.00 0.02 0.02 67 1008.3
20260831054001 65 116 0.0 4.0 0.00 0.02 0.02 67 1008.4
20260831053501 65 154 0.0 2.0 0.00 0.02 0.02 67 1008.5
20260831053001 65 155 0.0 3.0 0.00 0.02 0.02 66 1008.5
20260831052500 66 150 0.0 3.0 0.00 0.02 0.02 66 1008.5
20260831052000 66 153 0.0 4.0 0.00 0.02 0.02 66 1008.6
20260831051620 66 146 1.0 4.0 0.00 0.02 0.02 65 1008.6
20260831051100 67 113 0.0 3.0 0.00 0.02 0.02 63 1008.4
20260831050600 68 113 0.0 3.0 0.00 0.02 0.02 61 1008.4
20260831050100 68 121 0.0 1.0 0.00 0.02 0.02 60 1008.4
20260831045600 68 116 0.0 1.0 0.00 0.02 0.02 61 1008.4
20260831045100 68 103 0.0 1.0 0.00 0.02 0.02 62 1008.3
20260831044601 68 103 0.0 0.0 0.00 0.02 0.02 63 1008.2
20260831044059 67 103 0.0 0.0 0.00 0.02 0.02 64 1008.3
20260831043558 67 102 0.0 1.0 0.00 0.02 0.02 63 1008.3
20260831043059 67 98 0.0 1.0 0.00 0.02 0.02 63 1008.2
20260831042559 67 98 0.0 1.0 0.00 0.02 0.02 63 1008.2
20260831042059 67 90 0.0 2.0 0.00 0.02 0.02 62 1008.3
20260831041559 67 90 0.0 2.0 0.00 0.02 0.02 61 1008.3
20260831041059 68 90 1.0 3.0 0.00 0.02 0.02 60 1008.3
20260831040559 69 90 0.0 3.0 0.00 0.02 0.02 57 1008.3
20260831040101 70 76 0.0 3.0 0.00 0.02 0.02 56 1008.3
20260831035558 70 215 0.0 3.0 0.00 0.02 0.02 56 1008.2
20260831035058 70 215 1.0 4.0 0.00 0.02 0.02 56 1008.1
20260831034558 70 219 1.0 4.0 0.00 0.02 0.02 56 1008.1
20260831034057 70 212 2.0 4.0 0.00 0.02 0.02 56 1008.1
20260831033557 70 197 2.0 4.0 0.00 0.02 0.02 56 1008.0
20260831033103 70 212 2.0 4.0 0.00 0.02 0.02 56 1008.0
20260831032556 71 186 2.0 4.0 0.00 0.02 0.02 56 1007.9
20260831032056 71 209 2.0 4.0 0.00 0.02 0.02 56 1007.9
20260831031558 71 200 2.0 4.0 0.00 0.02 0.02 55 1007.9
20260831031056 71 207 1.0 4.0 0.00 0.02 0.02 55 1007.8
20260831030555 71 217 2.0 4.0 0.00 0.02 0.02 55 1007.8
20260831030056 72 212 1.0 3.0 0.00 0.02 0.02 54 1007.8
20260831025555 72 204 1.0 4.0 0.00 0.02 0.02 54 1007.8
20260831025055 72 201 2.0 4.0 0.00 0.02 0.02 54 1007.7
20260831024605 72 198 2.0 4.0 0.00 0.02 0.02 53 1007.6
20260831024055 73 209 2.0 4.0 0.00 0.02 0.02 52 1007.6
20260831023554 72 207 2.0 3.0 0.00 0.02 0.02 51 1007.4
20260831023054 72 42 0.0 1.0 0.00 0.02 0.02 50 1007.4
20260831022554 72 42 0.0 0.0 0.00 0.02 0.02 49 1007.3
20260831022054 72 42 0.0 2.0 0.00 0.02 0.02 48 1007.2
20260831021559 72 42 0.0 2.0 0.00 0.02 0.02 48 1007.2
20260831021054 73 42 0.0 3.0 0.00 0.02 0.02 47 1007.0
20260831020556 73 42 0.0 4.0 0.00 0.02 0.02 47 1007.0
20260831020054 74 27 0.0 4.0 0.00 0.02 0.02 47 1006.9
20260831015553 74 27 2.0 4.0 0.00 0.02 0.02 46 1006.8
20260831015053 75 24 1.0 4.0 0.00 0.02 0.02 45 1006.9
20260831014552 75 12 2.0 5.0 0.00 0.02 0.02 45 1006.9
20260831014052 75 5 2.0 5.0 0.00 0.02 0.02 45 1006.8
20260831013552 76 355 2.0 5.0 0.00 0.02 0.02 45 1006.8
20260831013052 76 5 1.0 4.0 0.00 0.02 0.02 44 1006.9
20260831012552 76 13 1.0 4.0 0.00 0.02 0.02 45 1006.9
20260831012054 76 34 2.0 6.0 0.00 0.02 0.02 43 1006.8
20260831011555 77 19 4.0 8.0 0.00 0.02 0.02 43 1006.9
20260831011051 77 339 4.0 10.0 0.00 0.02 0.02 44 1007.0
20260831010550 77 331 6.0 10.0 0.00 0.02 0.02 43 1007.1
20260831010122 77 27 2.0 8.0 0.00 0.02 0.02 44 1007.2
20260831005550 77 19 4.0 9.0 0.00 0.02 0.02 44 1007.3
20260831005050 77 42 5.0 9.0 0.00 0.02 0.02 44 1007.2
20260831004551 78 29 4.0 12.0 0.00 0.02 0.02 44 1007.3
20260831004053 78 36 6.0 12.0 0.00 0.02 0.02 44 1007.3
20260831003553 78 40 4.0 9.0 0.00 0.02 0.02 44 1007.3
20260831003049 79 9 5.0 9.0 0.00 0.02 0.02 42 1007.2
20260831002548 79 321 3.0 12.0 0.00 0.02 0.02 44 1007.2
20260831002052 79 323 7.0 12.0 0.00 0.02 0.02 43 1007.2
20260831001600 79 333 7.0 10.0 0.00 0.02 0.02 43 1007.2
20260831001048 80 329 5.0 13.0 0.00 0.02 0.02 43 1007.3
20260831000549 79 313 7.0 13.0 0.00 0.02 0.02 43 1007.2
20260831000048 80 301 7.0 11.0 0.00 0.02 0.02 43 1007.1
20260830235548 79 285 3.0 11.0 0.00 0.03 0.02 42 1007.1
20260830235047 79 300 3.0 12.0 0.00 0.03 0.02 44 1007.2
20260830234547 79 15 8.0 12.0 0.00 0.03 0.02 43 1007.2
20260830234046 80 13 5.0 9.0 0.00 0.03 0.02 43 1007.3
20260830233546 80 341 3.0 12.0 0.00 0.03 0.02 46 1007.3
20260830233046 80 33 5.0 12.0 0.00 0.03 0.02 43 1007.4
20260830232547 80 37 6.0 10.0 0.00 0.03 0.02 44 1007.4
20260830232046 80 5 3.0 9.0 0.00 0.03 0.02 45 1007.3
20260830231546 79 312 2.0 13.0 0.00 0.03 0.02 45 1007.3
20260830231048 80 306 8.0 13.0 0.00 0.03 0.02 45 1007.3
20260830230546 80 12 6.0 13.0 0.00 0.03 0.02 44 1007.3
20260830230051 80 307 7.0 13.0 0.00 0.03 0.02 44 1007.4
20260830225544 80 339 7.0 12.0 0.00 0.03 0.02 44 1007.5
20260830225044 80 320 9.0 15.0 0.00 0.03 0.02 45 1007.4
20260830224551 80 323 9.0 15.0 0.00 0.03 0.02 45 1007.5
20260830224046 79 309 6.0 14.0 0.00 0.03 0.02 46 1007.4
20260830223544 80 335 6.0 14.0 0.00 0.03 0.02 46 1007.5
20260830223044 79 301 6.0 13.0 0.00 0.03 0.02 47 1007.6
20260830222544 79 248 9.0 13.0 0.00 0.03 0.02 45 1007.7
20260830222048 80 309 8.0 12.0 0.00 0.03 0.02 46 1007.7
20260830221544 80 302 6.0 11.0 0.00 0.03 0.02 46 1007.8
20260830221043 79 329 6.0 13.0 0.00 0.03 0.02 48 1008.0
20260830220542 78 263 10.0 13.0 0.00 0.03 0.02 47 1008.1
20260830220045 77 284 8.0 13.0 0.00 0.03 0.02 47 1008.0
20260830215542 77 289 5.0 11.0 0.00 0.03 0.02 47 1008.0
20260830215041 78 271 5.0 12.0 0.00 0.03 0.02 46 1008.1
20260830214546 78 300 4.0 12.0 0.00 0.03 0.02 46 1008.2
20260830214041 78 259 6.0 12.0 0.00 0.03 0.02 43 1008.2
20260830213541 79 298 6.0 12.0 0.00 0.03 0.02 42 1008.2
20260830213041 79 234 7.0 14.0 0.00 0.03 0.02 43 1008.1
20260830212541 80 296 7.0 15.0 0.00 0.03 0.02 43 1008.2
20260830212040 79 333 10.0 15.0 0.00 0.03 0.02 44 1008.2
20260830211540 80 309 6.0 14.0 0.00 0.03 0.02 43 1008.3
20260830211040 81 303 6.0 11.0 0.00 0.03 0.02 44 1008.3
20260830210540 79 240 5.0 10.0 0.00 0.03 0.02 42 1008.4
20260830210039 79 318 5.0 12.0 0.00 0.03 0.02 48 1008.5
20260830205539 78 331 4.0 15.0 0.00 0.05 0.02 45 1008.6
20260830205038 78 319 10.0 15.0 0.00 0.05 0.02 43 1008.5
20260830204539 80 311 7.0 14.0 0.00 0.05 0.02 43 1008.5
20260830204039 81 25 7.0 14.0 0.00 0.05 0.02 44 1008.6
20260830203537 81 30 4.0 13.0 0.00 0.05 0.02 42 1008.6
20260830203036 80 5 6.0 13.0 0.00 0.05 0.02 45 1008.7
20260830202537 79 355 4.0 8.0 0.00 0.05 0.02 47 1008.8
20260830202035 80 49 3.0 8.0 0.00 0.05 0.02 42 1008.7
20260830201533 80 26 4.0 10.0 0.00 0.05 0.02 46 1008.8
20260830201033 79 30 4.0 12.0 0.00 0.05 0.02 46 1008.7
20260830200533 79 344 7.0 12.0 0.00 0.05 0.02 46 1008.8
20260830200033 79 28 3.0 6.0 0.00 0.05 0.02 49 1009.0
20260830195533 78 74 1.0 6.0 0.00 0.05 0.02 50 1008.9
20260830195033 78 315 4.0 6.0 0.00 0.05 0.02 45 1009.1
20260830194534 76 328 2.0 8.0 0.00 0.05 0.02 50 1009.2
20260830194032 75 310 3.0 9.0 0.00 0.05 0.02 50 1009.3
20260830193531 75 328 4.0 12.0 0.00 0.05 0.02 52 1009.2
20260830193031 75 298 8.0 12.0 0.00 0.05 0.02 51 1009.3
20260830192531 75 349 7.0 11.0 0.00 0.05 0.02 49 1009.1
20260830192031 76 304 5.0 10.0 0.00 0.05 0.02 47 1009.1
20260830191531 76 17 4.0 10.0 0.00 0.05 0.02 48 1009.1
20260830191030 77 329 4.0 10.0 0.00 0.05 0.02 46 1009.2
20260830190530 78 59 4.0 9.0 0.00 0.05 0.02 46 1009.2
20260830190032 79 17 3.0 7.0 0.00 0.05 0.02 48 1009.3
20260830185530 79 182 3.0 9.0 0.00 0.05 0.02 49 1009.3
20260830185031 79 331 5.0 9.0 0.00 0.05 0.02 50 1009.4
20260830184527 79 175 1.0 7.0 0.00 0.05 0.02 49 1009.3
20260830184031 78 113 3.0 7.0 0.00 0.05 0.02 50 1009.3
20260830183531 78 163 1.0 9.0 0.00 0.05 0.02 51 1009.4
20260830183025 78 190 2.0 9.0 0.00 0.05 0.02 50 1009.3
20260830182524 78 82 4.0 9.0 0.00 0.05 0.02 52 1009.3
20260830182023 77 351 0.0 6.0 0.00 0.05 0.02 54 1009.4
20260830181534 78 300 3.0 6.0 0.00 0.05 0.02 54 1009.5
20260830181021 77 351 2.0 9.0 0.00 0.05 0.02 56 1009.5
20260830180520 77 24 4.0 9.0 0.00 0.05 0.02 55 1009.4
20260830180032 77 9 4.0 8.0 0.00 0.05 0.02 54 1009.6
20260830175519 77 323 4.0 8.0 0.00 0.13 0.02 54 1009.5
20260830175016 77 36 3.0 6.0 0.00 0.13 0.02 52 1009.6
20260830174524 77 46 3.0 5.0 0.00 0.13 0.02 57 1009.6
20260830174017 76 77 1.0 9.0 0.00 0.13 0.02 56 1009.6
20260830173514 76 308 3.0 9.0 0.00 0.13 0.02 57 1009.6
20260830173016 76 315 1.0 7.0 0.00 0.13 0.02 57 1009.6
20260830172511 76 196 1.0 3.0 0.00 0.13 0.02 54 1009.7
20260830172012 76 164 0.0 5.0 0.00 0.13 0.02 54 1009.8
20260830171513 76 164 1.0 7.0 0.00 0.13 0.02 53 1009.7
20260830171011 75 101 2.0 5.0 0.00 0.13 0.02 56 1009.7
20260830170514 75 138 1.0 3.0 0.00 0.13 0.02 59 1009.7
20260830170008 76 138 0.0 4.0 0.00 0.13 0.02 57 1009.8
20260830165510 75 144 1.0 6.0 0.00 0.18 0.02 56 1009.7
20260830165004 74 148 3.0 6.0 0.00 0.18 0.02 55 1009.7
20260830164503 74 177 2.0 9.0 0.00 0.18 0.02 55 1009.6
20260830164005 74 200 4.0 12.0 0.00 0.18 0.02 55 1009.3
20260830163501 73 128 4.0 12.0 0.00 0.18 0.02 55 1009.1
20260830163105 73 180 4.0 12.0 0.00 0.18 0.02 56 1009.1
20260830162559 73 149 6.0 15.0 0.00 0.18 0.02 56 1009.2
20260830162057 72 179 5.0 15.0 0.00 0.18 0.02 58 1009.1
20260830161625 72 187 7.0 14.0 0.00 0.18 0.02 58 1009.1
20260830161056 72 128 5.0 11.0 0.00 0.18 0.02 59 1009.1
20260830160554 72 182 4.0 11.0 0.00 0.18 0.02 60 1009.0
20260830160053 71 133 5.0 15.0 0.00 0.18 0.02 60 1009.1
20260830155552 71 122 6.0 15.0 0.00 0.18 0.02 62 1009.0
20260830155051 71 140 3.0 12.0 0.00 0.18 0.02 63 1009.1
20260830154550 70 132 5.0 12.0 0.00 0.18 0.02 64 1009.0
20260830154050 70 219 3.0 8.0 0.00 0.18 0.02 67 1009.0
20260830153549 69 177 5.0 12.0 0.00 0.18 0.02 66 1009.1
20260830153048 69 207 5.0 12.0 0.00 0.18 0.02 67 1009.0
20260830152546 68 98 5.0 11.0 0.00 0.18 0.02 68 1009.0
20260830152046 68 136 4.0 14.0 0.00 0.18 0.02 69 1009.0
20260830151544 68 146 4.0 14.0 0.00 0.18 0.02 69 1009.1
20260830151046 68 90 2.0 8.0 0.00 0.18 0.02 69 1009.0
20260830150545 68 138 0.0 7.0 0.00 0.18 0.02 70 1009.1
20260830150046 68 144 3.0 8.0 0.00 0.18 0.02 72 1009.1
20260830145542 67 163 3.0 8.0 0.00 0.26 0.02 75 1009.1
20260830145042 66 115 3.0 8.0 0.00 0.26 0.02 79 1009.0
20260830144540 65 115 0.0 4.0 0.00 0.26 0.02 81 1009.1
20260830144043 64 125 0.0 4.0 0.00 0.26 0.02 81 1009.1
20260830143540 64 115 0.0 3.0 0.00 0.26 0.02 81 1009.1
20260830143036 63 119 0.0 3.0 0.00 0.26 0.02 81 1009.3